User: anonymous
Location: Fort Wayne
(41.1310°N, 85.1290°W)
Time: 02:45:17
(UTC-04:00)
Language:

Helios 1B - Orbit

View from above orbital plane
View from above orbital plane
View from above satellite
View from above satellite

Ground track
Ground track

The orbit data is extracted from the following two-line orbital elements,

1 25977U 99064A   14244.87981674  .00000819  00000-0  11439-3 0  3457
2 25977 098.1616 323.6192 0001125 053.2580 073.2542 14.80415170793071
Epoch (UTC): 01 September 2014 21:06:56
Eccentricity: 0.0001125
inclination: 98.1616°
perigee height: 627 km
apogee height: 629 km
right ascension of ascending node: 323.6192°
argument of perigee: 53.2580°
revolutions per day: 14.80415170
mean anomaly at epoch: 73.2542°
orbit number at epoch: 79307

The dashed part of the orbit path shows where the satellite is in the earth's shadow,  

DLR